Regional Weather Roundup
Issued by NWS

Home | Current Version | Previous Version | Graphics & Text | Print | Product List | Glossary On
Versions: 1 2 3 4 5 6 7 8 9 10 11 12 13 14 15 16 17 18 19 20 21 22 23 24 25 26 27 28
000
ASUS45 KSLC 272010
RWRUT

UTAH REGIONAL WEATHER ROUNDUP
NATIONAL WEATHER SERVICE SALT LAKE CITY UT
200 PM MDT WED APR 27 2016

UTZ001>011-023>025-272100-

NORTHERN UTAH

CITY           SKY/WX    TMP DP  RH WIND       PRES   REMARKS
BRIGHAM CITY   MOSUNNY   57  34  41 N3        29.80F
HILL AFB       PTSUNNY   55  36  47 VRB5      29.80F
LOGAN          PTSUNNY   54  40  59 NW7       29.81F
OGDEN          PTSUNNY   59  38  45 NW9       29.79F
PROVO AIRPORT  PTSUNNY   55  37  50 SW12G17   29.81F
SALT LAKE CITY CLOUDY    56  34  43 VRB3      29.79F
VERNAL         PTSUNNY   54  33  45 CALM      29.82F
WENDOVER       CLOUDY    45  37  76 CALM      29.85F
HEBER CITY     CLOUDY    52  32  46 NW3       29.79F

$$

UTZ012>022-026-027-272100-

SOUTHERN/CENTRAL UTAH

CITY           SKY/WX    TMP DP  RH WIND       PRES   REMARKS
BLANDING       CLOUDY    53  31  43 S5        29.92F
BRYCE CANYON   CLOUDY    42  35  76 SE9       29.87F
CEDAR CITY     LGT RAIN  47  38  71 S10       29.83F
DELTA          PTSUNNY   52  39  62 S10       29.81F
HANKSVILLE     MOSUNNY   61  32  33 S8        29.81F
MILFORD        LGT RAIN  52  38  58 SW18      29.82F
MOAB/CYNLANDS  CLOUDY    60  38  43 CALM      29.80F
PRICE          CLOUDY    51  30  44 SW9       29.83F
ST GEORGE      CLOUDY    66  34  30 N5        29.76F
KANAB          CLOUDY    61  32  33 SW9       29.84F

$$

REGIONAL REPORTS     COLORADO/ARIZONA

CITY           SKY/WX    TMP DP  RH WIND       PRES   REMARKS
CRAIG, CO      CLOUDY    49  30  48 NW10G21   29.83F
GRAND JUNCTION CLOUDY    55  36  48 NW7       29.83F
RIFLE          CLOUDY    52  31  44 VRB5      29.83F
MONTROSE       CLOUDY    50  35  56 CALM      29.86F
CORTEZ         CLOUDY    57  30  35 VRB7      29.85F
PAGE, AZ       CLOUDY    63  37  38 NE10      29.78F
GRAND CANYON   CLOUDY    56  24  29 SW15G26   29.87F
KINGMAN        PTSUNNY   71  26  18 S23G31    29.79F
FLAGSTAFF      MOSUNNY   53  24  32 SW10G28   29.90F

$$

REGIONAL REPORTS    NEVADA/IDAHO/WYOMING

CITY           SKY/WX    TMP DP  RH WIND       PRES   REMARKS
LAS VEGAS, NV  CLOUDY    71  25  17 SW6G18    29.69F
ELY            LGT RAIN  40  35  83 CALM      29.84F
ELKO           CLOUDY    48  33  56 NW3       29.83F
POCATELLO, ID  PTSUNNY   52  40  63 W7        29.85F
BURLEY         CLOUDY    55  37  50 N7        29.81F
EVANSTON, WY   CLOUDY    45  34  65 NE12      29.84F
ROCK SPRINGS   MOSUNNY   40  30  67 N5        29.87F
KEMMERER         N/A     45  32  61 SW15      29.85S

$$




USA.gov is the U.S. government's official web portal to all federal, state and local government web resources and services.